Dewpoint
61 62 62 63 63 62 62 61 61 60 60 59 59 59 58 58 55 47 35 34 42 53 52 41 39 38 35 33 33 29 26 24 21 17 26 20 19 21 21 19 26 31 34 36 43
62 62 63 63 62 62 61 61 61 60 60 59 59 59 58 58 48 40 39 46 54 59 41 37 34 35 27 29 30 26 21 21 20 14 17 20 19 20 19 19 23 29 39 41 43
62 62 63 63 62 62 61 61 61 61 60 60 60 58 58 56 41 34 46 49 57 56 38 39 37 33 26 27 28 26 21 24 22 22 21 19 19 22 19 17 20 23 33 38 38
62 62 63 63 62 62 61 61 61 60 60 60 59 57 57 48 27 36 54 56 61 49 35 35 27 24 22 23 24 23 24 23 20 26 22 20 21 20 21 19 22 24 26 28 30
62 62 63 63 62 62 61 61 60 60 60 59 58 57 46 40 34 38 59 61 53 39 33 33 27 26 24 23 22 22 21 21 20 22 23 22 19 19 20 23 25 28 29 29 30
62 62 62 62 61 61 61 61 60 60 59 58 57 57 43 30 35 48 52 45 37 36 35 35 27 26 25 23 22 21 21 21 21 20 21 19 18 21 20 23 27 29 30 31 31
61 61 61 61 61 61 61 61 61 60 59 57 56 54 44 32 41 48 46 39 39 34 32 30 28 27 27 25 25 23 22 21 20 19 18 20 18 18 22 23 26 29 31 32 32
61 61 61 61 60 60 60 60 60 59 57 56 56 50 36 38 40 37 38 40 40 36 31 29 29 27 26 26 25 22 19 16 17 19 20 19 12 16 19 22 25 29 31 33 34
61 61 61 61 60 60 60 60 59 57 56 55 48 43 32 39 34 35 36 37 33 30 29 28 28 27 26 25 24 21 14 15 15 20 22 18 15 15 23 22 24 28 31 33 34
61 61 60 60 59 58 60 59 56 53 52 51 48 38 34 29 30 33 38 33 28 28 26 26 27 25 25 24 20 16 18 17 16 17 20 19 18 18 21 21 22 27 30 33 35
56 60 60 60 59 59 58 52 38 35 44 27 29 30 27 33 31 30 35 29 29 27 25 26 24 23 24 24 24 22 22 20 17 15 16 16 17 17 18 20 21 26 29 33 35
54 60 60 59 59 59 54 41 30 27 25 37 40 37 35 31 27 28 33 29 27 25 26 26 23 24 26 26 26 25 18 17 19 16 17 16 16 17 17 18 20 23 28 32 36
52 55 59 58 58 57 53 45 44 37 28 26 28 35 31 31 26 27 31 28 26 25 25 24 25 27 26 26 25 23 21 18 16 16 17 16 15 16 18 19 21 24 28 32 36
51 52 58 58 55 54 52 52 47 43 22 22 27 28 29 31 27 29 30 28 26 25 26 25 26 26 26 25 24 20 17 16 16 15 12 17 12 15 16 19 21 24 28 31 35
50 52 58 56 52 52 50 53 47 34 27 29 29 30 29 25 27 28 29 28 25 25 26 25 26 26 26 24 19 19 20 18 17 15 17 17 14 11 19 17 19 22 28 31 34
50 51 57 53 51 51 48 48 38 33 27 22 30 26 27 28 28 27 27 28 28 26 26 25 25 26 27 25 23 21 19 21 22 19 13 14 13 9 12 15 20 23 27 30 33
50 50 56 54 49 51 47 37 28 29 26 22 27 26 25 26 26 25 25 25 24 23 23 24 23 21 21 19 21 20 17 14 15 16 9 18 16 12 15 18 21 21 26 30 32
49 49 50 52 46 45 39 29 21 25 21 25 27 26 24 26 26 24 24 24 25 24 23 23 23 21 21 19 18 19 16 12 7 14 16 18 15 16 18 20 21 23 27 30 31
48 48 53 53 44 46 32 25 20 23 24 24 26 24 22 26 26 24 24 24 25 24 22 22 23 22 21 21 19 18 17 18 15 16 13 12 14 13 17 19 22 25 28 29 31
45 46 52 53 47 37 28 24 22 26 24 26 23 25 22 24 24 24 23 24 24 25 23 22 20 21 21 21 22 19 19 16 17 10 9 11 12 12 12 17 21 23 26 29 30
43 40 53 53 47 35 27 25 24 27 25 22 22 24 25 24 24 25 24 26 25 25 24 22 19 20 20 19 19 20 18 18 17 15 8 8 8 15 15 16 18 21 25 28 29
39 35 53 50 38 35 28 26 28 25 27 24 24 23 24 25 24 24 24 25 27 26 23 23 20 18 19 21 22 20 19 18 15 13 15 13 10 16 17 18 18 18 22 26 30
34 43 50 46 33 33 28 27 28 25 25 24 24 24 24 24 23 25 25 26 26 26 24 23 21 18 18 20 20 20 20 19 17 15 13 11 11 18 19 18 20 18 20 22 27
32 37 43 45 38 32 28 26 24 28 25 26 24 26 24 23 23 23 23 25 26 26 27 24 21 20 18 18 19 20 19 19 18 16 15 15 14 15 16 16 18 20 21 22 25
36 34 40 36 36 32 28 26 23 26 28 26 25 24 22 22 22 22 25 25 26 28 25 23 21 20 20 19 19 19 19 19 18 18 16 16 16 17 18 18 17 18 20 22 24
34 39 39 37 37 33 29 25 22 28 27 25 23 24 23 22 22 22 24 23 22 26 23 23 20 20 18 20 21 18 18 20 19 19 18 18 18 19 19 17 18 20 21 23 25
43 44 37 36 35 33 29 25 23 28 30 27 25 25 23 24 24 24 26 25 23 24 23 23 22 20 18 19 19 17 18 18 19 20 19 18 19 20 19 19 19 21 23 24 27
Wind_Speed
14 14 13 12 12 10 10 9 9 9 9 10 11 13 14 14 16 1 8 8 4 6 4 2 1 2 1 3 3 4 3 1 1 0 2 3 2 3 2 3 3 2 3 2 11
16 16 14 13 11 11 10 9 9 10 9 10 12 13 13 13 7 10 14 9 9 8 5 5 3 3 2 2 3 3 2 5 2 2 2 1 2 2 2 0 2 3 5 8 10
16 16 15 14 13 12 10 10 9 9 9 10 11 13 12 11 6 7 1 16 7 11 1 3 2 2 2 2 1 3 4 4 3 4 3 2 3 2 3 6 7 8 10 9 8
18 17 16 16 13 12 11 10 8 8 9 10 10 14 15 2 5 1 5 9 9 8 2 3 3 3 2 4 3 3 5 4 2 4 3 4 2 4 6 5 3 7 9 7 9
20 19 17 15 14 13 11 9 8 7 8 9 10 11 4 3 10 5 3 9 9 7 6 5 3 4 4 3 3 5 3 4 3 4 6 3 8 6 9 6 7 8 7 8 6
20 19 18 17 15 13 11 9 7 6 7 8 9 9 3 8 5 2 6 6 5 6 6 5 4 5 4 3 3 2 4 7 6 8 6 7 7 1 4 8 9 9 7 5 4
22 21 19 17 15 14 11 9 6 6 6 7 7 3 4 16 1 4 3 3 3 5 5 5 5 4 4 2 0 1 7 12 10 6 10 7 9 14 7 9 12 9 7 5 3
24 23 20 18 16 14 10 8 6 5 6 6 4 1 8 6 8 12 9 9 4 5 3 3 4 4 2 4 4 2 2 4 2 2 1 6 12 12 5 15 14 10 7 4 1
26 24 21 19 17 13 10 7 5 5 5 4 1 1 10 10 6 12 9 6 5 3 2 4 2 2 3 3 2 4 3 3 8 5 4 7 7 5 5 14 15 13 9 5 2
25 26 23 20 17 13 10 5 3 2 3 2 3 2 9 6 4 6 7 8 3 8 3 2 3 3 2 4 6 3 3 4 9 3 5 8 19 19 6 12 17 14 11 8 6
24 28 25 22 18 16 12 5 4 2 7 12 11 7 4 6 3 4 7 8 5 5 11 4 7 14 15 11 7 5 5 9 9 10 5 14 20 23 16 13 16 17 16 13 10
24 27 28 24 21 21 14 6 7 2 8 25 8 13 10 2 1 4 10 12 8 12 7 3 15 21 11 8 9 8 6 12 11 8 7 13 22 21 16 21 24 26 23 20 12
29 28 30 27 24 20 20 19 1 2 2 4 24 9 8 8 7 8 16 9 10 14 16 15 6 12 11 9 9 11 11 10 13 4 5 8 16 15 8 11 14 20 19 16 21
29 40 33 29 20 22 24 23 9 6 3 6 9 11 10 7 8 9 13 11 6 22 12 12 13 7 7 14 13 12 11 7 5 3 6 2 11 9 9 11 12 19 23 23 20
25 36 37 35 17 28 10 18 5 2 7 9 9 1 11 17 7 13 8 5 14 10 8 11 10 16 17 20 13 9 7 7 4 4 4 5 5 12 5 12 17 19 22 23 22
22 26 39 27 11 14 11 16 5 7 16 7 10 11 13 10 10 4 6 3 6 10 3 15 3 7 12 6 16 4 5 5 4 1 6 11 11 12 6 6 5 11 20 23 22
24 25 29 25 22 23 24 16 11 13 5 9 10 11 17 12 12 11 15 16 13 12 13 4 8 3 5 5 3 6 8 3 4 5 10 3 6 16 10 11 7 15 22 22 21
19 18 29 26 25 28 22 20 14 18 14 5 9 15 16 12 11 12 18 22 13 9 9 16 10 13 9 11 8 10 11 7 7 6 3 2 8 7 3 5 11 10 17 19 23
11 22 25 23 31 31 32 34 25 10 21 14 11 13 9 11 11 10 15 24 23 18 13 14 12 3 5 5 13 7 11 8 1 1 2 6 8 13 4 3 1 7 16 24 24
5 14 29 25 30 32 39 31 23 9 21 15 12 11 17 21 12 19 17 14 12 20 9 6 4 2 3 4 2 9 11 5 2 5 6 6 8 16 4 4 3 10 18 19 19
6 10 24 29 17 26 50 34 16 12 18 13 12 9 10 15 17 17 15 3 23 20 16 8 5 1 4 9 17 7 9 3 6 5 5 3 6 4 6 6 9 12 18 22 26
5 9 36 39 22 34 39 26 9 16 8 7 9 8 17 21 14 15 21 18 15 16 20 14 7 9 11 3 6 8 11 12 8 7 6 3 9 2 3 5 7 9 12 16 19
6 8 30 42 28 39 20 17 11 14 14 13 9 6 7 15 12 15 15 13 9 19 19 14 8 6 4 2 1 6 9 10 5 3 10 9 6 1 1 4 5 8 9 15 19
1 7 19 22 7 31 30 34 20 8 12 9 8 8 11 11 3 19 15 4 9 13 14 19 9 20 21 6 7 5 11 20 17 10 19 15 13 14 7 5 6 8 11 9 14
7 9 10 29 32 32 32 31 30 15 9 13 6 14 13 8 9 7 8 6 4 6 13 15 16 15 17 6 9 9 11 17 21 29 15 27 23 28 20 17 18 12 9 11 12
6 10 17 27 36 23 37 37 41 16 19 19 18 19 13 13 12 15 13 10 9 7 11 9 8 15 13 15 12 11 12 15 22 15 20 22 22 18 16 10 11 14 11 14 15
13 17 24 34 37 24 44 36 41 16 4 17 21 12 12 10 8 5 11 15 12 16 15 14 12 9 22 11 8 13 15 13 9 12 22 22 30 7 11 11 15 15 11 15 13
Wind_Direction
241 239 243 247 243 253 266 274 280 290 301 312 318 321 320 326 321 359 264 227 189 202 168 124 139 347 54 97 83 119 70 94 299 255 220 354 196 11 53 120 72 16 165 284 139
227 238 241 239 243 250 259 268 277 287 301 310 318 320 321 330 313 275 239 243 246 184 173 163 119 17 72 58 52 79 124 198 229 249 237 43 65 316 316 113 85 89 75 110 132
228 232 238 237 235 246 256 259 272 283 297 309 322 320 318 320 301 247 327 228 216 183 165 122 98 70 65 52 162 152 209 201 235 221 227 237 270 213 224 257 204 194 169 165 172
232 234 236 235 236 240 247 256 265 280 296 312 324 319 316 267 234 288 320 204 181 180 167 124 96 125 155 191 180 210 230 211 267 203 188 243 214 252 218 242 239 180 171 176 190
226 229 230 229 232 232 240 253 264 278 295 311 320 323 329 267 252 296 64 133 136 158 195 191 168 157 201 189 150 208 251 210 219 255 234 251 256 258 247 235 143 138 147 164 183
226 224 223 226 233 236 235 242 252 270 292 313 320 325 248 250 265 250 141 134 161 169 189 198 189 181 142 179 194 198 261 273 273 250 227 229 261 208 259 181 153 151 156 164 185
223 220 219 220 226 231 226 230 241 262 286 305 309 299 247 236 60 57 183 204 186 180 185 218 184 159 160 190 14 339 303 310 267 253 221 181 269 246 240 182 177 172 171 169 181
221 219 213 217 219 224 225 224 225 252 282 286 285 256 253 246 266 268 249 288 229 217 226 200 181 148 174 129 34 354 26 310 283 181 215 159 265 268 231 178 192 191 191 189 199
222 215 213 214 218 212 211 219 224 247 253 265 229 183 263 311 239 241 201 216 176 178 192 125 114 136 83 122 335 23 248 276 310 183 154 200 257 281 164 187 202 201 202 204 200
247 211 206 210 216 206 189 174 193 266 220 236 257 275 261 239 211 188 180 176 167 147 121 132 87 169 126 154 243 192 254 267 272 260 217 228 253 259 247 206 221 205 202 208 204
326 204 201 199 196 183 152 139 139 220 216 192 200 207 283 241 291 196 161 147 120 139 192 184 196 211 215 205 225 239 258 273 267 276 260 256 263 269 260 215 221 215 207 206 203
282 224 196 188 182 173 163 204 203 185 216 233 240 257 266 336 175 213 148 171 173 193 145 152 215 224 215 213 223 238 251 268 284 262 220 270 274 268 253 228 217 210 207 201 192
303 305 186 177 174 167 195 205 105 133 242 233 220 220 222 191 232 225 174 161 182 191 188 198 221 206 200 219 234 250 248 261 266 313 255 307 282 264 273 241 223 206 201 192 191
313 313 178 165 168 185 208 217 247 341 291 257 207 239 195 162 242 203 183 165 187 204 187 218 229 202 197 236 218 243 223 231 250 320 281 28 293 276 269 257 235 206 198 193 190
304 316 171 165 144 186 187 207 182 303 229 237 186 195 174 182 157 196 176 156 186 176 171 211 205 221 230 234 186 234 189 216 245 239 305 243 248 275 297 271 239 215 202 192 190
259 287 169 173 144 179 162 147 170 122 231 206 155 170 157 182 177 118 161 150 169 185 207 216 209 182 223 220 206 147 112 50 53 93 265 254 208 277 249 257 282 211 202 194 189
257 271 200 172 176 153 139 145 150 210 200 186 178 170 167 171 165 164 180 183 181 186 203 212 220 202 164 133 106 146 135 260 253 206 238 172 178 248 266 257 252 224 202 192 187
277 270 269 172 150 149 160 168 197 207 199 133 152 156 182 155 200 170 179 194 204 165 179 200 220 193 195 197 187 191 177 197 247 213 268 129 238 255 217 285 272 237 193 182 188
287 275 204 174 149 159 167 189 202 164 184 152 120 154 184 180 169 168 198 203 198 186 193 189 224 181 199 162 180 188 205 206 316 325 282 245 279 289 312 288 80 176 173 189 192
277 308 188 153 153 170 177 198 200 193 163 150 163 171 181 179 169 181 185 195 193 196 200 197 212 221 160 123 70 186 162 172 159 234 239 256 264 240 280 267 209 195 204 199 197
309 292 158 138 143 184 186 197 178 198 166 159 168 157 179 176 183 186 193 197 195 195 196 168 201 218 134 202 194 159 188 157 171 186 221 256 251 221 279 248 227 228 215 206 202
235 248 152 142 163 197 189 186 167 185 179 150 142 132 175 174 177 181 201 197 197 180 191 189 185 197 200 191 197 191 202 177 198 215 221 210 263 206 275 307 237 248 239 222 213
277 192 157 152 179 190 186 201 184 165 174 161 157 155 153 170 186 194 197 213 156 179 183 173 207 210 209 170 119 201 207 200 153 128 210 205 247 153 213 297 254 244 231 225 218
266 226 156 173 182 179 182 191 192 177 164 152 151 138 137 169 154 193 190 166 171 194 194 167 183 205 220 217 154 201 213 207 200 221 231 234 261 262 252 227 240 254 260 233 220
204 256 181 176 200 182 186 186 189 173 185 152 146 172 157 153 167 158 165 146 145 164 175 174 215 210 219 193 187 207 233 214 205 221 206 249 240 258 261 254 262 254 251 244 230
217 220 188 179 172 187 185 194 186 178 170 178 161 172 159 153 177 183 160 177 178 172 173 178 222 199 223 218 223 235 237 213 217 234 238 250 265 256 262 244 252 251 249 240 237
211 259 184 164 176 186 191 186 194 167 149 168 157 146 155 144 155 173 170 177 166 171 182 177 174 168 229 220 210 245 225 210 205 214 223 236 248 235 261 247 246 249 243 250 251